KE7MWT Weather Reports


Display with metric or nautical units.
time (UTC)temp
F
wind
direction
speed
MPH
gust
MPH
rain 1hr
in
rain 24hr
in
rain mn
in
humidity
%
barometer
mb
20260904220023 102 242 3.0 9.0 0.00 0.34 0.00 31 1010.8
20260904215823 103 231 2.0 9.0 0.00 0.34 0.00 27 1014.3
20260904215332 102 136 2.0 11.0 0.00 0.34 0.00 28 1014.3
20260904214816 102 184 5.0 10.0 0.00 0.34 0.00 28 1014.3
20260904214523 102 220 4.0 10.0 0.00 0.34 0.00 31 1010.9
20260904214330 103 213 5.0 10.0 0.00 0.34 0.00 27 1014.4
20260904213815 102 286 3.0 10.0 0.00 0.34 0.00 27 1014.4
20260904213324 102 246 3.0 10.0 0.00 0.34 0.00 27 1014.5
20260904213010 102 218 5.0 10.0 0.00 0.34 0.00 31 1011.1
20260904212829 102 231 3.0 8.0 0.00 0.34 0.00 27 1014.6
20260904212319 102 193 3.0 9.0 0.00 0.34 0.00 30 1014.7
20260904211826 101 192 3.0 9.0 0.00 0.34 0.00 29 1014.8
20260904211509 100 221 5.0 9.0 0.00 0.34 0.00 32 1011.4
20260904211316 101 238 1.0 6.0 0.00 0.34 0.00 28 1014.8
20260904210824 100 205 3.0 6.0 0.00 0.34 0.00 30 1014.9
20260904210316 101 250 3.0 10.0 0.00 0.34 0.00 30 1015.0
20260904210026 100 193 3.0 9.0 0.00 0.34 0.00 35 1011.5
20260904205843 100 209 2.0 8.0 0.00 0.34 0.00 32 1015.0
20260904205317 100 104 2.0 10.0 0.00 0.34 0.00 32 1015.0
20260904204842 101 182 1.0 4.0 0.00 0.34 0.00 30 1015.1
20260904204500 100 101 1.0 4.0 0.00 0.34 0.00 36 1011.6
20260904204329 100 202 1.0 6.0 0.00 0.34 0.00 32 1015.1
20260904203832 100 257 1.0 6.0 0.00 0.34 0.00 33 1015.2
20260904203322 101 180 2.0 5.0 0.00 0.34 0.00 32 1015.3
20260904203004 100 188 3.0 6.0 0.00 0.34 0.00 36 1011.9
20260904202850 101 113 2.0 6.0 0.00 0.34 0.00 32 1015.3
20260904202339 99 190 3.0 10.0 0.00 0.34 0.00 33 1015.3
20260904201824 99 294 4.0 10.0 0.00 0.34 0.00 33 1015.5
20260904201528 99 233 4.0 10.0 0.00 0.34 0.00 37 1012.2
20260904201315 100 261 3.0 8.0 0.00 0.34 0.00 33 1015.6
20260904200822 100 98 2.0 9.0 0.00 0.34 0.00 33 1015.6
20260904200331 99 221 4.0 9.0 0.00 0.34 0.00 32 1015.8
20260904200018 99 201 3.0 8.0 0.00 0.34 0.00 37 1012.3
20260904195815 99 184 2.0 7.0 0.00 0.34 0.00 36 1015.9
20260904195324 98 196 3.0 6.0 0.00 0.34 0.00 36 1015.9
20260904194833 98 188 2.0 9.0 0.00 0.34 0.00 36 1016.0
20260904194516 98 188 4.0 7.0 0.00 0.34 0.00 39 1012.7
20260904194322 99 187 2.0 6.0 0.00 0.34 0.00 36 1016.1
20260904193826 100 117 1.0 8.0 0.00 0.34 0.00 36 1016.2
20260904193316 99 97 1.0 8.0 0.00 0.34 0.00 37 1016.3
20260904193004 98 193 4.0 9.0 0.00 0.34 0.00 40 1012.8
20260904192821 98 157 2.0 8.0 0.00 0.34 0.00 37 1016.2
20260904192331 97 210 3.0 8.0 0.00 0.34 0.00 36 1016.4
20260904191815 97 350 3.0 5.0 0.00 0.34 0.00 36 1016.4
20260904191505 96 285 2.0 4.0 0.00 0.34 0.00 40 1013.0
20260904191324 97 261 1.0 3.0 0.00 0.34 0.00 36 1016.5
20260904190829 97 151 0.0 5.0 0.00 0.34 0.00 38 1016.6
20260904190323 97 115 2.0 5.0 0.00 0.34 0.00 37 1016.8
20260904190010 96 152 1.0 5.0 0.00 0.34 0.00 41 1013.4
20260904185850 97 119 1.0 7.0 0.00 0.34 0.00 38 1016.8
20260904185336 96 196 2.0 8.0 0.00 0.34 0.00 36 1016.9
20260904184820 95 244 4.0 8.0 0.00 0.34 0.00 39 1016.9
20260904184517 95 200 1.0 12.0 0.00 0.34 0.00 43 1013.4
20260904184329 95 210 1.0 12.0 0.00 0.34 0.00 39 1017.0
20260904183814 96 183 5.0 8.0 0.00 0.34 0.00 40 1017.1
20260904183323 95 126 1.0 7.0 0.00 0.34 0.00 42 1017.1
20260904183027 94 265 3.0 9.0 0.00 0.34 0.00 45 1013.6
20260904182828 95 204 4.0 9.0 0.00 0.34 0.00 41 1017.1
20260904182317 95 209 3.0 9.0 0.00 0.34 0.00 39 1017.2
20260904181823 95 113 1.0 6.0 0.00 0.34 0.00 40 1017.2
20260904181504 94 308 1.0 12.0 0.00 0.34 0.00 45 1013.8
20260904181331 94 184 3.0 12.0 0.00 0.34 0.00 41 1017.3
20260904180820 95 190 5.0 12.0 0.00 0.34 0.00 41 1017.3
20260904180349 94 119 3.0 5.0 0.00 0.34 0.00 42 1017.4
20260904180010 93 232 1.0 12.0 0.00 0.34 0.00 46 1013.8
20260904175833 93 41 1.0 10.0 0.00 0.34 0.00 41 1017.4
20260904175321 93 119 4.0 12.0 0.00 0.34 0.00 43 1017.5
20260904174826 93 157 3.0 8.0 0.00 0.34 0.00 45 1017.5
20260904174509 93 139 2.0 6.0 0.00 0.34 0.00 48 1014.1
20260904174315 94 62 2.0 6.0 0.00 0.34 0.00 46 1017.5
20260904173820 93 115 2.0 7.0 0.00 0.34 0.00 46 1017.5
20260904173329 93 124 2.0 7.0 0.00 0.34 0.00 46 1017.6
20260904173018 92 178 2.0 7.0 0.00 0.34 0.00 49 1014.1
20260904172817 93 159 2.0 7.0 0.00 0.34 0.00 45 1017.5
20260904172326 92 155 3.0 7.0 0.00 0.34 0.00 46 1017.6
20260904171815 93 150 3.0 7.0 0.00 0.34 0.00 47 1017.6
20260904171526 92 109 1.0 7.0 0.00 0.34 0.00 50 1014.1
20260904171344 92 128 2.0 7.0 0.00 0.34 0.00 47 1017.6
20260904170828 91 157 1.0 6.0 0.00 0.34 0.00 47 1017.5
20260904170318 91 148 2.0 6.0 0.00 0.34 0.00 47 1017.6
20260904170004 91 152 2.0 6.0 0.00 0.34 0.00 51 1014.1
20260904165822 92 174 2.0 6.0 0.00 0.34 0.00 49 1017.6
20260904165351 91 158 3.0 6.0 0.00 0.34 0.00 49 1017.5
20260904164814 91 126 1.0 8.0 0.00 0.34 0.00 50 1017.4
20260904164511 91 152 3.0 8.0 0.00 0.34 0.00 52 1014.0
20260904164324 91 136 2.0 5.0 0.00 0.34 0.00 49 1017.4
20260904163829 91 128 2.0 6.0 0.00 0.34 0.00 49 1017.4
20260904163320 90 112 1.0 6.0 0.00 0.34 0.00 51 1017.5
20260904163018 90 115 2.0 6.0 0.00 0.34 0.00 54 1014.0
20260904162825 90 128 3.0 6.0 0.00 0.34 0.00 51 1017.4
20260904162333 90 119 1.0 5.0 0.00 0.34 0.00 52 1017.4
20260904161838 90 93 2.0 8.0 0.00 0.34 0.00 51 1017.4
20260904161529 89 225 2.0 8.0 0.00 0.34 0.00 55 1014.0
20260904161326 90 86 2.0 7.0 0.00 0.34 0.00 52 1017.4
20260904160816 89 147 2.0 7.0 0.00 0.34 0.00 52 1017.4
20260904160326 89 105 2.0 7.0 0.00 0.34 0.00 53 1017.4
20260904160009 89 181 3.0 7.0 0.00 0.34 0.00 56 1014.0
20260904155833 89 106 2.0 4.0 0.00 0.34 0.00 53 1017.4
20260904155324 89 115 1.0 4.0 0.00 0.34 0.00 53 1017.4
20260904154830 89 96 2.0 6.0 0.00 0.34 0.00 53 1017.3
20260904154508 88 159 1.0 4.0 0.00 0.34 0.00 58 1013.9
20260904154320 89 155 2.0 6.0 0.00 0.34 0.00 54 1017.3
20260904153827 89 144 2.0 6.0 0.00 0.34 0.00 54 1017.2
20260904153338 89 179 2.0 5.0 0.00 0.34 0.00 53 1017.2
20260904153022 88 102 1.0 6.0 0.00 0.34 0.00 57 1013.8
20260904152824 89 125 1.0 6.0 0.00 0.34 0.00 53 1017.2
20260904152335 88 121 2.0 7.0 0.00 0.34 0.00 53 1017.1
20260904151841 88 211 1.0 6.0 0.00 0.34 0.00 55 1017.2
20260904151520 87 116 1.0 6.0 0.00 0.34 0.00 59 1013.7
20260904151330 88 113 1.0 6.0 0.00 0.34 0.00 57 1017.2
20260904150817 87 109 1.0 4.0 0.00 0.34 0.00 56 1017.1
20260904150329 87 137 1.0 6.0 0.00 0.34 0.00 56 1017.1
20260904150035 86 132 2.0 7.0 0.00 0.34 0.00 59 1013.6
20260904145820 87 148 2.0 6.0 0.00 0.34 0.00 56 1017.0
20260904145330 87 104 2.0 3.0 0.00 0.34 0.00 56 1017.1
20260904144817 87 167 1.0 4.0 0.00 0.34 0.00 56 1017.0
20260904144508 86 141 2.0 4.0 0.00 0.34 0.00 60 1013.6
20260904144348 86 128 2.0 4.0 0.00 0.34 0.00 56 1017.0
20260904143814 86 140 1.0 4.0 0.00 0.34 0.00 56 1017.0
20260904143324 86 140 1.0 4.0 0.00 0.34 0.00 57 1016.9
20260904143011 85 143 1.0 4.0 0.00 0.34 0.00 61 1013.4
20260904142832 86 140 1.0 4.0 0.00 0.34 0.00 58 1016.9
20260904142324 85 144 1.0 4.0 0.00 0.34 0.00 58 1016.8
20260904141831 85 138 1.0 3.0 0.00 0.34 0.00 59 1016.8
20260904141517 84 124 1.0 3.0 0.00 0.34 0.00 62 1013.3
20260904141341 85 128 1.0 3.0 0.00 0.34 0.00 59 1016.8
20260904140828 84 125 1.0 2.0 0.00 0.34 0.00 60 1016.7
20260904140318 84 123 1.0 2.0 0.00 0.34 0.00 60 1016.6
20260904140026 83 158 1.0 1.0 0.00 0.34 0.00 64 1013.1
20260904135827 84 115 1.0 1.0 0.00 0.34 0.00 61 1016.5
20260904135322 84 139 0.0 3.0 0.00 0.34 0.00 61 1016.4
20260904134829 83 149 1.0 3.0 0.00 0.34 0.00 61 1016.4
20260904134534 83 133 1.0 2.0 0.00 0.34 0.00 65 1012.9
20260904134320 83 147 1.0 1.0 0.00 0.34 0.00 61 1016.4
20260904133829 83 138 0.0 1.0 0.00 0.34 0.00 62 1016.3
20260904133340 83 138 0.0 1.0 0.00 0.34 0.00 63 1016.2
20260904133010 82 140 0.0 2.0 0.00 0.34 0.00 66 1012.8
20260904132826 83 140 0.0 2.0 0.00 0.34 0.00 62 1016.1
20260904132338 83 144 1.0 3.0 0.00 0.34 0.00 62 1016.0
20260904131825 83 129 1.0 3.0 0.00 0.34 0.00 62 1015.9
20260904131517 82 159 1.0 3.0 0.00 0.34 0.00 65 1012.4
20260904131317 83 125 1.0 2.0 0.00 0.34 0.00 62 1015.8
20260904130846 83 113 1.0 3.0 0.00 0.34 0.00 62 1015.8
20260904130338 83 130 1.0 3.0 0.00 0.34 0.00 62 1015.8
20260904130024 82 118 1.0 2.0 0.00 0.34 0.00 66 1012.2
20260904125845 83 137 0.0 2.0 0.00 0.34 0.00 62 1015.7
20260904125334 83 120 1.0 2.0 0.00 0.34 0.00 62 1015.6
20260904124825 83 123 1.0 2.0 0.00 0.34 0.00 61 1015.6
20260904124525 82 148 1.0 4.0 0.00 0.34 0.00 65 1012.1
20260904124316 83 94 1.0 4.0 0.00 0.34 0.00 61 1015.5
20260904123825 83 88 1.0 4.0 0.00 0.34 0.00 61 1015.5
20260904123316 83 96 1.0 2.0 0.00 0.34 0.00 61 1015.4
20260904123030 83 82 0.0 2.0 0.00 0.34 0.00 64 1011.8
20260904122845 84 86 1.0 2.0 0.00 0.34 0.00 60 1015.3
20260904122315 83 107 1.0 4.0 0.00 0.34 0.00 60 1015.3
20260904121821 83 110 0.0 3.0 0.00 0.34 0.00 60 1015.3
20260904121513 83 115 1.0 3.0 0.00 0.34 0.00 64 1011.7
20260904121313 83 145 1.0 3.0 0.00 0.34 0.00 60 1015.2
20260904120820 83 127 1.0 3.0 0.00 0.34 0.00 60 1015.2
20260904120332 84 128 1.0 3.0 0.00 0.34 0.00 59 1015.2
20260904120019 83 119 0.0 3.0 0.00 0.34 0.00 63 1011.8
20260904115824 83 119 0.0 3.0 0.00 0.34 0.00 60 1015.2
20260904115315 83 150 1.0 1.0 0.00 0.34 0.00 60 1015.1
20260904114822 83 157 1.0 2.0 0.00 0.34 0.00 60 1015.1
20260904114526 83 145 0.0 2.0 0.00 0.34 0.00 63 1011.6
20260904114313 83 157 0.0 2.0 0.00 0.34 0.00 60 1015.1
20260904113821 83 125 1.0 2.0 0.00 0.34 0.00 60 1015.1
20260904113313 83 157 0.0 2.0 0.00 0.34 0.00 60 1015.1
20260904113028 82 157 0.0 2.0 0.00 0.34 0.00 64 1011.6
20260904112840 83 157 0.0 2.0 0.00 0.34 0.00 61 1015.1
20260904112331 82 175 0.0 2.0 0.00 0.34 0.00 61 1015.1
20260904111819 82 178 0.0 2.0 0.00 0.34 0.00 63 1015.0
20260904111512 81 84 0.0 2.0 0.00 0.34 0.00 68 1011.6
20260904111314 81 84 0.0 2.0 0.00 0.34 0.00 66 1015.1
20260904110822 81 84 0.0 2.0 0.00 0.34 0.00 65 1015.1
20260904110315 81 84 0.0 2.0 0.00 0.34 0.00 65 1015.1
20260904110017 81 84 0.0 2.0 0.00 0.34 0.00 68 1011.7
20260904105824 81 84 0.0 2.0 0.00 0.34 0.00 64 1015.1
20260904105315 81 84 0.0 0.0 0.00 0.34 0.00 64 1015.1
20260904104823 82 84 0.0 0.0 0.00 0.34 0.00 64 1015.0
20260904104524 81 84 0.0 0.0 0.00 0.34 0.00 67 1011.6
20260904104334 82 84 0.0 0.0 0.00 0.34 0.00 64 1015.0
20260904103821 81 84 0.0 0.0 0.00 0.34 0.00 65 1014.9
20260904103353 81 84 0.0 0.0 0.00 0.34 0.00 64 1014.9
20260904103036 81 84 0.0 2.0 0.00 0.34 0.00 68 1011.5
20260904102821 82 84 0.0 2.0 0.00 0.34 0.00 64 1014.9
20260904102316 82 84 0.0 2.0 0.00 0.34 0.00 63 1014.9
20260904101825 82 84 0.0 2.0 0.00 0.34 0.00 63 1014.8
20260904101537 81 86 0.0 2.0 0.00 0.34 0.00 67 1011.3
20260904101316 82 86 0.0 2.0 0.00 0.34 0.00 64 1014.8
20260904100824 82 86 0.0 2.0 0.00 0.34 0.00 63 1014.8
20260904100315 82 86 0.0 2.0 0.00 0.34 0.00 62 1014.7
20260904100014 82 86 0.0 2.0 0.00 0.34 0.00 65 1011.2
20260904095823 83 86 0.0 2.0 0.00 0.34 0.00 62 1014.7
20260904095335 82 86 0.0 2.0 0.00 0.34 0.00 62 1014.7
20260904094823 83 86 1.0 2.0 0.00 0.34 0.00 62 1014.7
20260904094520 82 86 0.0 2.0 0.00 0.34 0.00 64 1011.2
20260904094314 83 86 0.0 2.0 0.00 0.34 0.00 60 1014.7
20260904093822 83 95 0.0 2.0 0.00 0.34 0.00 60 1014.7
20260904093317 83 93 0.0 3.0 0.00 0.34 0.00 60 1014.7
20260904093028 83 94 1.0 3.0 0.00 0.34 0.00 63 1011.1
20260904092824 83 93 1.0 3.0 0.00 0.34 0.00 60 1014.7
20260904092316 83 84 1.0 2.0 0.00 0.34 0.00 61 1014.6
20260904091824 83 84 0.0 2.0 0.00 0.34 0.00 61 1014.6
20260904091527 83 84 0.0 2.0 0.00 0.34 0.00 64 1011.1
20260904091336 83 84 0.0 2.0 0.00 0.34 0.00 60 1014.6
20260904090824 83 95 1.0 2.0 0.00 0.34 0.00 61 1014.6
20260904090316 84 96 0.0 1.0 0.00 0.34 0.00 60 1014.7
20260904090030 83 97 1.0 1.0 0.00 0.34 0.00 63 1011.2
20260904085823 84 98 0.0 2.0 0.00 0.34 0.00 59 1014.7
20260904085334 84 98 1.0 3.0 0.00 0.34 0.00 59 1014.7
20260904084820 84 92 1.0 3.0 0.00 0.34 0.00 58 1014.7
20260904084518 84 82 1.0 3.0 0.00 0.34 0.00 62 1011.1
20260904084336 84 83 1.0 3.0 0.00 0.34 0.00 58 1014.7
20260904083824 84 86 2.0 3.0 0.00 0.34 0.00 58 1014.6
20260904083315 84 89 1.0 2.0 0.00 0.34 0.00 59 1014.6
20260904083029 83 78 1.0 2.0 0.00 0.34 0.00 62 1011.2
20260904082823 84 78 1.0 2.0 0.00 0.34 0.00 59 1014.7
20260904082314 84 70 0.0 3.0 0.00 0.34 0.00 58 1014.8
20260904081823 85 82 2.0 3.0 0.00 0.34 0.00 58 1014.8
20260904081527 84 69 1.0 2.0 0.00 0.34 0.00 61 1011.3
20260904081314 85 70 1.0 2.0 0.00 0.34 0.00 58 1014.8
20260904080822 85 82 0.0 2.0 0.00 0.34 0.00 58 1014.8
20260904080313 85 74 1.0 2.0 0.00 0.34 0.00 57 1014.8
20260904080008 85 74 0.0 2.0 0.00 0.34 0.00 60 1011.3
20260904075826 85 72 1.0 2.0 0.00 0.34 0.00 56 1014.8
20260904075337 85 82 1.0 4.0 0.00 0.34 0.00 55 1014.8
20260904074824 85 67 1.0 4.0 0.00 0.34 0.00 55 1014.8
20260904074532 85 74 1.0 3.0 0.00 0.34 0.00 59 1011.3
20260904074316 85 95 0.0 2.0 0.00 0.34 0.00 56 1014.8
20260904073844 85 98 0.0 3.0 0.00 0.34 0.00 56 1014.7
20260904073315 86 100 0.0 3.0 0.00 0.34 0.00 56 1014.7
20260904073032 85 100 1.0 3.0 0.00 0.34 0.00 59 1011.2
20260904072822 86 96 1.0 3.0 0.00 0.34 0.00 55 1014.7
20260904072314 86 86 0.0 2.0 0.00 0.34 0.00 56 1014.7
20260904071821 86 96 0.0 2.0 0.00 0.34 0.00 56 1014.7
20260904071528 85 96 0.0 2.0 0.00 0.34 0.00 59 1011.1
20260904071353 86 96 0.0 2.0 0.00 0.34 0.00 56 1014.7
20260904070820 86 97 0.0 2.0 0.00 0.34 0.00 55 1014.6
20260904070316 86 173 1.0 3.0 0.00 0.34 0.00 56 1014.7
20260904070029 86 92 1.0 4.0 0.00 0.34 0.00 58 1011.1
20260904065825 86 159 0.0 4.0 0.00 0.34 0.34 55 1014.5
20260904065315 86 72 1.0 2.0 0.00 0.34 0.34 56 1014.6
20260904064823 86 59 0.0 2.0 0.00 0.34 0.34 55 1014.5
20260904064517 86 77 0.0 2.0 0.00 0.34 0.34 57 1010.9
20260904064335 87 98 1.0 2.0 0.00 0.34 0.34 53 1014.4
20260904063842 87 178 0.0 3.0 0.00 0.34 0.34 52 1014.4
20260904063313 87 164 0.0 3.0 0.00 0.34 0.34 53 1014.4
20260904063019 86 194 1.0 3.0 0.00 0.34 0.34 57 1010.8
20260904062820 87 101 1.0 2.0 0.00 0.34 0.34 53 1014.3
20260904062332 87 111 0.0 2.0 0.00 0.34 0.34 53 1014.3
20260904061820 87 111 1.0 2.0 0.00 0.34 0.34 53 1014.2
20260904061539 86 169 0.0 3.0 0.00 0.34 0.34 56 1010.8
20260904061316 87 182 0.0 3.0 0.00 0.34 0.34 53 1014.1
20260904060824 87 175 1.0 3.0 0.00 0.34 0.34 52 1014.1
20260904060315 87 163 1.0 5.0 0.00 0.34 0.34 52 1014.1
20260904060030 87 172 1.0 5.0 0.00 0.34 0.34 56 1010.7
20260904055823 87 136 1.0 5.0 0.00 0.34 0.34 53 1014.1
20260904055314 87 106 0.0 2.0 0.00 0.34 0.34 53 1014.0
20260904054820 88 150 0.0 3.0 0.00 0.34 0.34 52 1014.0
20260904054514 87 141 1.0 4.0 0.00 0.34 0.34 55 1010.6
20260904054330 88 156 1.0 4.0 0.00 0.34 0.34 51 1013.9
20260904053818 88 128 1.0 4.0 0.00 0.34 0.34 52 1014.0
20260904053329 88 122 0.0 2.0 0.00 0.34 0.34 52 1014.0
20260904053020 87 123 0.0 2.0 0.00 0.34 0.34 55 1010.6
20260904052815 88 123 0.0 2.0 0.00 0.34 0.34 51 1014.0
20260904052347 87 119 0.0 2.0 0.00 0.34 0.34 52 1013.9
20260904051839 87 109 0.0 2.0 0.00 0.34 0.34 51 1013.9
20260904051523 87 109 0.0 2.0 0.00 0.34 0.34 54 1010.4
20260904051328 88 109 0.0 2.0 0.00 0.34 0.34 50 1013.8
20260904050817 88 95 0.0 2.0 0.00 0.34 0.34 50 1013.8
20260904050330 88 111 0.0 2.0 0.00 0.34 0.34 50 1013.8
20260904050028 88 113 0.0 2.0 0.00 0.34 0.34 53 1010.4
20260904045817 88 113 1.0 2.0 0.00 0.34 0.34 49 1013.9
20260904045328 89 132 0.0 2.0 0.00 0.34 0.34 47 1013.8
20260904044816 89 139 1.0 2.0 0.00 0.34 0.34 46 1013.8
20260904044532 88 130 1.0 2.0 0.00 0.34 0.34 50 1010.4
20260904044328 89 126 1.0 2.0 0.00 0.34 0.34 46 1013.9
20260904043816 89 119 1.0 3.0 0.00 0.34 0.34 45 1013.8
20260904043331 89 188 1.0 3.0 0.00 0.34 0.34 45 1013.8
20260904043015 89 165 1.0 5.0 0.00 0.34 0.34 48 1010.4
20260904042817 89 111 1.0 5.0 0.00 0.34 0.34 45 1013.7
20260904042328 89 135 2.0 5.0 0.00 0.34 0.34 45 1013.7
20260904041815 89 175 1.0 6.0 0.00 0.34 0.34 46 1013.6
20260904041521 88 182 1.0 5.0 0.00 0.34 0.34 49 1010.2
20260904041324 88 192 1.0 5.0 0.00 0.34 0.34 46 1013.6
20260904040850 88 142 0.0 2.0 0.00 0.34 0.34 48 1013.5
20260904040319 88 138 0.0 2.0 0.00 0.34 0.34 49 1013.4
20260904040025 86 169 0.0 2.0 0.00 0.34 0.34 55 1009.9
20260904035827 87 117 0.0 2.0 0.00 0.34 0.34 52 1013.3
20260904035318 87 117 0.0 2.0 0.00 0.34 0.34 53 1013.3
20260904034846 86 117 0.0 2.0 0.00 0.34 0.34 54 1013.2
20260904034531 85 117 0.0 2.0 0.00 0.34 0.34 58 1009.7
20260904034316 85 117 0.0 2.0 0.00 0.34 0.34 57 1013.2
20260904033823 85 117 0.0 2.0 0.00 0.34 0.34 58 1013.0
20260904033318 86 117 0.0 2.0 0.00 0.34 0.34 57 1012.9
20260904033035 85 117 0.0 2.0 0.00 0.34 0.34 58 1009.4
20260904032825 85 117 0.0 2.0 0.00 0.34 0.34 57 1012.9
20260904032316 84 117 0.0 0.0 0.00 0.34 0.34 61 1012.9
20260904031824 84 117 0.0 2.0 0.00 0.34 0.34 62 1012.8
20260904031512 84 117 0.0 2.0 0.00 0.34 0.34 64 1009.2
20260904031315 85 117 0.0 2.0 0.00 0.34 0.34 61 1012.7
20260904030823 85 117 0.0 0.0 0.00 0.34 0.34 60 1012.7
20260904030313 86 117 0.0 2.0 0.00 0.34 0.34 58 1012.6
20260904030020 85 117 0.0 2.0 0.00 0.34 0.34 59 1009.1
20260904025840 86 117 0.0 2.0 0.00 0.34 0.34 56 1012.6
20260904025330 86 117 0.0 2.0 0.00 0.34 0.34 56 1012.6
20260904024818 85 113 0.0 2.0 0.00 0.34 0.34 56 1012.6
20260904024526 85 120 0.0 1.0 0.00 0.34 0.34 62 1009.1
20260904024349 85 125 0.0 1.0 0.00 0.34 0.34 59 1012.5
20260904023840 84 124 0.0 1.0 0.01 0.34 0.34 61 1012.5
20260904023330 84 123 0.0 2.0 0.01 0.34 0.34 61 1012.5
20260904023030 84 123 0.0 2.0 0.01 0.34 0.34 65 1009.1
20260904022818 85 123 0.0 2.0 0.01 0.34 0.34 58 1012.4
20260904022329 84 124 0.0 2.0 0.11 0.34 0.34 60 1012.5
20260904021817 84 143 0.0 2.0 0.25 0.34 0.34 60 1012.5
20260904021516 83 148 0.0 2.0 0.31 0.34 0.34 63 1009.0
20260904021328 84 148 0.0 1.0 0.34 0.34 0.34 62 1012.5
20260904020815 84 175 0.0 3.0 0.34 0.34 0.34 62 1012.6
20260904020326 83 165 1.0 6.0 0.34 0.34 0.34 60 1012.5
20260904020017 83 157 1.0 6.0 0.34 0.34 0.34 66 1009.1
20260904015853 83 164 2.0 6.0 0.34 0.34 0.34 64 1012.5
20260904015323 83 83 0.0 5.0 0.34 0.34 0.34 65 1012.5
20260904014815 83 140 1.0 5.0 0.34 0.34 0.34 65 1012.5
20260904014523 81 99 1.0 4.0 0.34 0.34 0.34 72 1009.1
20260904014326 82 104 2.0 4.0 0.34 0.34 0.34 67 1012.5
20260904013814 81 116 2.0 5.0 0.33 0.33 0.33 67 1012.6
20260904013325 81 197 2.0 11.0 0.33 0.33 0.33 65 1012.8
20260904013027 81 106 3.0 12.0 0.33 0.33 0.33 68 1009.4
20260904012813 82 126 4.0 10.0 0.32 0.32 0.32 62 1013.1
20260904012324 84 123 4.0 15.0 0.23 0.23 0.23 63 1013.6
20260904011831 88 116 9.0 19.0 0.09 0.09 0.09 53 1013.7
20260904011531 92 200 8.0 20.0 0.03 0.03 0.03 44 1009.3
20260904011322 95 214 7.0 19.0 0.00 0.00 0.00 41 1012.5
20260904010814 99 249 5.0 13.0 0.00 0.00 0.00 31 1012.3
20260904010326 99 71 1.0 3.0 0.00 0.00 0.00 30 1011.9
20260904010014 99 248 0.0 4.0 0.00 0.00 0.00 33 1008.6
20260904005813 99 198 0.0 3.0 0.00 0.00 0.00 30 1011.9
20260904005324 99 169 2.0 4.0 0.00 0.00 0.00 30 1012.0
20260904004831 99 202 0.0 4.0 0.00 0.00 0.00 30 1011.9
20260904004523 98 206 0.0 5.0 0.00 0.00 0.00 34 1008.7
20260904004342 99 206 2.0 4.0 0.00 0.00 0.00 30 1012.0
20260904003828 99 194 1.0 6.0 0.00 0.00 0.00 29 1012.0
20260904003318 99 155 2.0 9.0 0.00 0.00 0.00 29 1012.0
20260904003026 99 189 4.0 9.0 0.00 0.00 0.00 32 1008.7
20260904002825 100 200 4.0 9.0 0.00 0.00 0.00 29 1012.0
20260904002317 100 217 2.0 7.0 0.00 0.00 0.00 28 1011.9
20260904001844 101 173 3.0 7.0 0.00 0.00 0.00 28 1011.9
20260904001532 101 177 4.0 6.0 0.00 0.00 0.00 31 1008.6
20260904001318 102 212 3.0 7.0 0.00 0.00 0.00 28 1012.0
20260904000844 101 238 2.0 7.0 0.00 0.00 0.00 28 1012.0
20260904000355 102 204 2.0 5.0 0.00 0.00 0.00 28 1012.0
20260904000032 101 190 2.0 8.0 0.00 0.00 0.00 32 1008.6
20260903235820 102 196 2.0 7.0 0.00 0.00 0.00 28 1012.1
20260903235331 102 246 2.0 8.0 0.00 0.00 0.00 28 1012.2
20260903234819 102 207 3.0 6.0 0.00 0.00 0.00 28 1012.2
20260903234519 101 187 2.0 5.0 0.00 0.00 0.00 32 1008.7
20260903234330 101 157 3.0 5.0 0.00 0.00 0.00 29 1012.1
20260903233817 102 230 3.0 6.0 0.00 0.00 0.00 28 1012.3
20260903233348 102 113 1.0 6.0 0.00 0.00 0.00 28 1012.2
20260903233024 102 211 1.0 8.0 0.00 0.00 0.00 31 1008.8
20260903232814 103 144 2.0 8.0 0.00 0.00 0.00 27 1012.3
20260903232325 103 205 3.0 7.0 0.00 0.00 0.00 27 1012.3
20260903231817 102 200 3.0 7.0 0.00 0.00 0.00 28 1012.3
20260903231530 102 215 2.0 9.0 0.00 0.00 0.00 31 1008.8
20260903231348 102 198 3.0 9.0 0.00 0.00 0.00 28 1012.3
20260903230815 102 80 2.0 6.0 0.00 0.00 0.00 28 1012.4
20260903230327 102 82 1.0 7.0 0.00 0.00 0.00 27 1012.5
20260903230031 101 114 2.0 7.0 0.00 0.00 0.00 32 1009.0
20260903225814 102 111 1.0 8.0 0.00 0.00 0.00 28 1012.6
20260903225320 103 250 2.0 8.0 0.00 0.00 0.00 28 1012.7
20260903224822 103 174 3.0 8.0 0.00 0.00 0.00 27 1012.7
20260903224534 101 300 3.0 8.0 0.00 0.00 0.00 31 1009.3
20260903224332 101 229 4.0 8.0 0.00 0.00 0.00 28 1012.7
20260903223820 101 237 4.0 7.0 0.00 0.00 0.00 28 1012.8
20260903223329 102 337 3.0 7.0 0.00 0.00 0.00 27 1012.8
20260903223005 102 117 1.0 8.0 0.00 0.00 0.00 31 1009.5
20260903222816 103 201 4.0 8.0 0.00 0.00 0.00 27 1013.0
20260903222327 103 256 2.0 8.0 0.00 0.00 0.00 27 1013.0
20260903221819 102 251 3.0 7.0 0.00 0.00 0.00 27 1013.1
20260903221504 101 259 2.0 6.0 0.00 0.00 0.00 31 1009.6
20260903221330 102 100 2.0 4.0 0.00 0.00 0.00 27 1013.1
20260903220818 103 125 1.0 5.0 0.00 0.00 0.00 26 1013.2
20260903220329 102 169 1.0 5.0 0.00 0.00 0.00 28 1013.3